Location: Anglesey
(53.1800°N, 4.2200°W)
Time: 16:00:53
(UTC+01:00)

OTV 5 (USA 277) - Pass Details

Date: 15 October 2017
Orbit: 404 x 417 km, 43.0° (Epoch: 07 September)

Event Time Altitude Azimuth Distance (km) Brightness Sun altitude
Rises 19:05:24 0° 226° (SW) 2,351 ? -7.4°
Reaches altitude 10° 19:08:22 10° 198° (SSW) 1,490 ? -7.9°
Maximum altitude 19:10:00 13° 169° (SSE) 1,319 ? -8.1°
Drops below altitude 10° 19:11:38 10° 140° (SE) 1,491 ? -8.4°
Enters shadow 19:12:45 - 125° (SE) 1,762 ? -8.5°
